• In Portugal
  • List of Countries
  • For 7 days
  • Water Temperature
  • Satellite Maps
  • Weather Map
  • Weather Widgets
  • user-avatar
    Login

    Hourly Weather Kahramanmaras

    Today, 18 February, Sunday

    Time Temperature Precipitation Wind Pressure Humidity
    00:00 +4°C° 1 mm 2 mps 652 mmHg 83%
    01:00 +4°C° 1 mm 2 mps 652 mmHg 83%
    02:00 +4°C° 0 mm 2 mps 651 mmHg 83%
    03:00 +4°C° 0.6 mm 2 mps 652 mmHg 82%
    04:00 +4°C° 0.6 mm 2 mps 652 mmHg 82%
    05:00 +4°C° 0.6 mm 2 mps 652 mmHg 81%
    06:00 +3°C° 0.2 mm 3 mps 653 mmHg 78%
    07:00 +3°C° 0.2 mm 3 mps 654 mmHg 75%
    08:00 +4°C° 0.2 mm 3 mps 654 mmHg 72%
    09:00 +5°C° 0 mm 3 mps 655 mmHg 66%
    10:00 +6°C° 0 mm 4 mps 655 mmHg 60%
    11:00 +7°C° 0 mm 5 mps 656 mmHg 54%
    12:00 +7°C° 0 mm 5 mps 656 mmHg 52%
    13:00 +7°C° 0 mm 5 mps 656 mmHg 51%
    14:00 +8°C° 0 mm 5 mps 656 mmHg 50%
    15:00 +7°C° 0 mm 4 mps 656 mmHg 53%
    16:00 +7°C° 0 mm 3 mps 656 mmHg 56%
    17:00 +5°C° 0 mm 3 mps 656 mmHg 59%
    18:00 +4°C° 0 mm 3 mps 657 mmHg 60%
    19:00 +4°C° 0 mm 2 mps 657 mmHg 62%
    20:00 +3°C° 0 mm 2 mps 657 mmHg 63%
    21:00 +3°C° 0 mm 2 mps 657 mmHg 64%
    22:00 +3°C° 0 mm 2 mps 657 mmHg 64%
    23:00 +2°C° 0 mm 2 mps 658 mmHg 64%

    Tomorrow, 19 February, Monday

    Time Temperature Precipitation Wind Pressure Humidity
    00:00 +2°C° 0 mm 2 mps 658 mmHg 64%
    01:00 +2°C° 0 mm 2 mps 657 mmHg 64%
    02:00 +1°C° 0 mm 2 mps 657 mmHg 64%
    03:00 +1°C° 0 mm 2 mps 657 mmHg 63%
    04:00 +1°C° 0 mm 2 mps 657 mmHg 62%
    05:00 +1°C° 0 mm 2 mps 657 mmHg 61%
    06:00 +2°C° 0 mm 2 mps 657 mmHg 58%
    07:00 +3°C° 0 mm 2 mps 658 mmHg 55%
    08:00 +5°C° 0 mm 1 mps 658 mmHg 52%
    09:00 +7°C° 0 mm 1 mps 659 mmHg 48%
    10:00 +8°C° 0 mm 1 mps 659 mmHg 44%
    11:00 +10°C° 0 mm 1 mps 660 mmHg 41%
    12:00 +9°C° 0 mm 2 mps 659 mmHg 42%
    13:00 +10°C° 0 mm 2 mps 659 mmHg 43%
    14:00 +10°C° 0 mm 2 mps 659 mmHg 45%
    15:00 +9°C° 0 mm 2 mps 659 mmHg 51%
    16:00 +8°C° 0 mm 2 mps 658 mmHg 57%
    17:00 +7°C° 0 mm 2 mps 658 mmHg 63%
    18:00 +7°C° 0 mm 1 mps 658 mmHg 68%
    19:00 +6°C° 0 mm 1 mps 658 mmHg 73%
    20:00 +5°C° 0 mm 1 mps 658 mmHg 78%
    21:00 +5°C° 0 mm 1 mps 658 mmHg 79%
    22:00 +4°C° 0 mm 1 mps 658 mmHg 80%
    23:00 +4°C° 0 mm 1 mps 658 mmHg 81%

    Day after tomorrow, 20 February, Tuesday

    Time Temperature Precipitation Wind Pressure Humidity
    00:00 +4°C° 0 mm 1 mps 658 mmHg 79%
    01:00 +4°C° 0 mm 1 mps 658 mmHg 78%
    02:00 +4°C° 0 mm 1 mps 658 mmHg 77%
    03:00 +4°C° 0 mm 1 mps 658 mmHg 76%
    04:00 +4°C° 0 mm 1 mps 658 mmHg 75%
    05:00 +4°C° 0 mm 1 mps 658 mmHg 75%
    06:00 +5°C° 0 mm 1 mps 658 mmHg 72%
    07:00 +6°C° 0 mm 1 mps 659 mmHg 70%
    08:00 +6°C° 0 mm 1 mps 659 mmHg 67%
    09:00 +8°C° 0 mm 1 mps 659 mmHg 63%
    10:00 +9°C° 0 mm 1 mps 660 mmHg 58%
    11:00 +10°C° 0 mm 1 mps 660 mmHg 54%
    12:00 +10°C° 0 mm 1 mps 659 mmHg 53%
    13:00 +10°C° 0 mm 2 mps 659 mmHg 51%
    14:00 +10°C° 0 mm 2 mps 659 mmHg 50%
    15:00 +10°C° 0 mm 1 mps 658 mmHg 54%
    16:00 +9°C° 0 mm 1 mps 658 mmHg 58%
    17:00 +8°C° 0 mm 1 mps 658 mmHg 63%
    18:00 +8°C° 0 mm 1 mps 658 mmHg 65%
    19:00 +7°C° 0 mm 1 mps 658 mmHg 68%
    20:00 +6°C° 0 mm 1 mps 658 mmHg 70%
    21:00 +6°C° 0.1 mm 1 mps 657 mmHg 72%
    22:00 +6°C° 0.1 mm 1 mps 657 mmHg 74%
    23:00 +5°C° 0.1 mm 2 mps 657 mmHg 75%

    21 February, Wednesday

    Time Temperature Precipitation Wind Pressure Humidity
    00:00 +5°C° 0.1 mm 2 mps 657 mmHg 76%
    01:00 +4°C° 0.1 mm 2 mps 657 mmHg 77%
    02:00 +4°C° 0.1 mm 2 mps 657 mmHg 78%
    03:00 +4°C° 0 mm 2 mps 657 mmHg 78%
    04:00 +4°C° 0 mm 2 mps 656 mmHg 79%
    05:00 +4°C° 0 mm 2 mps 656 mmHg 80%
    06:00 +4°C° 0 mm 2 mps 657 mmHg 77%
    07:00 +5°C° 0 mm 2 mps 657 mmHg 75%
    08:00 +6°C° 0 mm 2 mps 658 mmHg 73%
    09:00 +7°C° 0 mm 2 mps 658 mmHg 68%
    10:00 +8°C° 0 mm 2 mps 658 mmHg 63%
    11:00 +9°C° 0 mm 2 mps 658 mmHg 58%
    12:00 +10°C° 0.2 mm 2 mps 658 mmHg 58%
    13:00 +10°C° 0.2 mm 2 mps 658 mmHg 58%
    14:00 +10°C° 0.2 mm 2 mps 657 mmHg 58%
    15:00 +9°C° 0.3 mm 2 mps 657 mmHg 62%
    16:00 +8°C° 0.3 mm 2 mps 657 mmHg 67%
    17:00 +8°C° 0.3 mm 1 mps 657 mmHg 71%
    18:00 +8°C° 0.1 mm 1 mps 657 mmHg 75%
    19:00 +7°C° 0.1 mm 1 mps 657 mmHg 79%
    20:00 +6°C° 0.1 mm 1 mps 657 mmHg 82%
    21:00 +5°C° 0.1 mm 2 mps 657 mmHg 84%
    22:00 +5°C° 0.1 mm 2 mps 657 mmHg 85%
    23:00 +4°C° 0.1 mm 2 mps 658 mmHg 86%

    22 February, Thursday

    Time Temperature Precipitation Wind Pressure Humidity
    00:00 +4°C° 0 mm 2 mps 657 mmHg 87%
    01:00 +4°C° 0 mm 2 mps 657 mmHg 87%
    02:00 +4°C° 0 mm 2 mps 657 mmHg 88%
    03:00 +4°C° 0 mm 2 mps 657 mmHg 87%
    04:00 +4°C° 0 mm 2 mps 657 mmHg 87%
    05:00 +4°C° 0 mm 2 mps 657 mmHg 86%
    06:00 +4°C° 0 mm 2 mps 657 mmHg 84%
    07:00 +5°C° 0 mm 2 mps 657 mmHg 82%
    08:00 +5°C° 0 mm 2 mps 657 mmHg 80%
    09:00 +6°C° 0.2 mm 2 mps 657 mmHg 77%
    10:00 +7°C° 0.2 mm 3 mps 657 mmHg 74%
    11:00 +7°C° 0.2 mm 3 mps 657 mmHg 71%
    12:00 +7°C° 0.6 mm 3 mps 656 mmHg 73%
    13:00 +7°C° 0.6 mm 3 mps 656 mmHg 75%
    14:00 +7°C° 0.6 mm 3 mps 655 mmHg 77%
    15:00 +6°C° 0.9 mm 2 mps 655 mmHg 80%
    16:00 +6°C° 0.9 mm 2 mps 655 mmHg 82%
    17:00 +7°C° 0.9 mm 1 mps 655 mmHg 85%
    18:00 +6°C° 1.1 mm 1 mps 655 mmHg 86%
    19:00 +5°C° 1.1 mm 2 mps 655 mmHg 88%
    20:00 +5°C° 1.1 mm 2 mps 655 mmHg 89%
    21:00 +5°C° 1.3 mm 2 mps 654 mmHg 90%
    22:00 +5°C° 1.3 mm 2 mps 654 mmHg 90%
    23:00 +4°C° 1.3 mm 2 mps 654 mmHg 90%

    23 February, Friday

    Time Temperature Precipitation Wind Pressure Humidity
    00:00 +4°C° 0.9 mm 2 mps 654 mmHg 90%
    01:00 +4°C° 0.9 mm 2 mps 654 mmHg 90%
    02:00 +4°C° 0.9 mm 2 mps 653 mmHg 90%
    03:00 +4°C° 0.4 mm 2 mps 653 mmHg 90%
    04:00 +4°C° 0.4 mm 2 mps 653 mmHg 90%
    05:00 +4°C° 0.4 mm 2 mps 653 mmHg 90%
    06:00 +5°C° 0.3 mm 2 mps 653 mmHg 88%
    07:00 +5°C° 0.3 mm 2 mps 654 mmHg 87%
    08:00 +6°C° 0.3 mm 2 mps 654 mmHg 85%
    09:00 +7°C° 0.3 mm 2 mps 654 mmHg 82%
    10:00 +8°C° 0.3 mm 1 mps 654 mmHg 79%
    11:00 +9°C° 0.3 mm 1 mps 654 mmHg 76%
    12:00 +10°C° 0.4 mm 1 mps 654 mmHg 73%
    13:00 +10°C° 0.4 mm 1 mps 654 mmHg 71%
    14:00 +10°C° 0.4 mm 1 mps 654 mmHg 69%
    15:00 +10°C° 0.2 mm 1 mps 654 mmHg 72%
    16:00 +9°C° 0.2 mm 1 mps 654 mmHg 76%
    17:00 +9°C° 0.2 mm 1 mps 654 mmHg 79%
    18:00 +8°C° 0.2 mm 1 mps 654 mmHg 82%
    19:00 +7°C° 0.2 mm 1 mps 655 mmHg 84%
    20:00 +6°C° 0.2 mm 0 mps 655 mmHg 87%
    21:00 +6°C° 0.2 mm 1 mps 655 mmHg 88%
    22:00 +6°C° 0.2 mm 1 mps 655 mmHg 88%
    23:00 +6°C° 0.2 mm 1 mps 655 mmHg 89%
    Show more